Volver al catálogo

STARLINK-35403

ActivoComunicacionesVLEO
NORAD 66081·PAYLOAD·🇺🇸 United States

Lanzado Oct 19, 2025 desde Cape Canaveral Space Force Station

Loading…

Próximos Pases (próximas 24 horas)

TLE

ActualizadoSource: CelesTrak SupGP

Época: Sep 14, 2026, 23:02 UTC

1 66081C 25235Z   26257.96020833  .00037497  00000+0  12059-2 0  2576
2 66081  53.1579  84.2842 0001193  83.9122 345.6918 15.31681516    14

Sigue STARLINK-35403 en tiempo real con AllMySat

Download on the App Store